Regional Weather Roundup
Issued by NWS Goodland, KS

Home | Current Version | Previous Version | Graphics & Text | Print | Product List | Glossary Off
Versions: 1 2 3 4 5 6 7 8 9 10 11 12 13 14 15 16 17 18 19 20 21 22 23 24 25 26 27 28 29 30 31 32 33 34 35 36 37 38 39 40 41 42 43 44 45 46 47 48 49 50

000
ASUS43 KGLD 170108
RWRGLD

GOODLAND FORECAST AREA HOURLY WEATHER ROUNDUP
NATIONAL WEATHER SERVICE GOODLAND KS
700 PM MDT WED APR 16 2014

...OFFICIAL OBSERVATIONS...

CITY           SKY/WX    TMP DP  RH WIND       PRES   REMARKS
GOODLAND KS    CLOUDY    49  32  52 NE14      30.02R
HILL CITY KS   CLOUDY    54  31  41 N13       29.99R
IMPERIAL NEB   MOCLDY    46  32  58 NE16      30.01R
MCCOOK NEB     CLOUDY    50  33  52 N16       30.01R
AKRON CO       CLOUDY    45  30  55 E9        30.01R
BURLINGTON CO  CLOUDY    49  28  44 NE13      30.01R
LIMON CO       CLOUDY    45  24  43 NE13      30.01R
$$

...UNOFFICIAL OBSERVATIONS...

CITY           SKY/WX    TMP DP  RH WIND       PRES   REMARKS
COLBY KS       PTCLDY    52  37  58 N9        30.02R
GOVE KS          N/A     53  32  45 N6          N/A
LENORA KS        N/A     51  32  48 N12         N/A
LEOTI KS         N/A     55  32  42 N13         N/A
NORTON KS      CLEAR     48  34  57 N15       29.99R
SHARON SPRINGS   N/A     52  31  44 NE8         N/A
WAKEENEY KS      N/A     53  27  37 MISG        N/A
TRENTON NEB      N/A     48  32  54 N12         N/A
KIT CARSON CO    N/A     50  28  42 MISG        N/A
$$



USA.gov is the U.S. government's official web portal to all federal, state and local government web resources and services.